Back to catalog

STARLINK-38040

AliveCommunicationsSSO
NORAD 69717·PAYLOAD·🇺🇸 United States

Launched Jun 28, 2026 from Vandenberg Space Force Base

Loading…

Next Passes (next 24 hours)

TLE

FreshSource: CelesTrak SupGP

Epoch: Sep 14, 2026, 16:23 UTC

1 69717C 26147P   26257.68312500 -.00041122  00000+0 -12767-2 0  2570
2 69717  97.2834 294.1354 0001292  96.1237 237.5648 15.33457074    10

Track STARLINK-38040 in real time with AllMySat

Download on the App Store